SCP
-0 -0 -0 -0 -0 -0 -0 -0 -0 0 0 0 0 0 0 0 0 0 0 0 0 0 0 0 0 0 0 0 0 0 0 0 0 0 0 0 0 0 0 0 0 0 0
-0 -0 -0 -0 -0 -0 -0 -0 0 0 0 0 0 0 0 0 0 0 0 0 0 0 0 0 0 0 0 0 0 0 0 0 0 0 0 0 0 0 0 0 0 0 0
-0 -0 -0 -0 -0 -0 -0 -0 0 0 0 0 0 0 0 0 0 0 0 0 0 0 0 0 0 0 0 0 0 0 0 0 0 0 0 0 0 0 0 0 0 0 0
-0 0 0 -0 -0 -0 -0 -0 0 0 0 0 0 0 0 0 0 0 0 0 0 0 0 0 0 0 0 0 0 0 0 0 0 0 0 0 0 0 0 0 0 0 0
0 0 0 -0 -0 -0 -0 -0 0 0 0 0 0 0 0 0 0 0 0 0 0 0 0 0 0 0 0 0 0 0 0 0 0 0 0 0 0 0 0 0 0 0 0
0 0 0 -0 -0 -0 -0 0 0 0 0 0 0 0 0 0 0 0 0 0 0 0 0 0 0 0 0 0 0 0 0 0 0 0 0 0 0 0 0 0 0 0 0
0 0 0 -0 -0 -0 -0 0 0 0 0 0 0 0 0 0 0 0 0 0 0 0 0 0 0 0 0 0 0 0 0 0 0 0 0 0 0 0 0 0 0 0 0
0 0 0 -0 -0 -0 -0 0 0 0 0 0 0 0 0 0 0 0 0 0 0 0 0 0 0 0 0 0 0 0 0 0 0 0 0 0 0 0 0 0 0 0 0
0 0 0 0 -0 -0 0 0 0 0 0 0 0 0 0 0 0 0 0 0 0 0 0 0 0 0 0 0 0 0 0 0 0 0 0 0 0 0 0 0 0 0 0
0 0 0 -0 -0 0 0 0 0 0 0 0 0 0 0 0 0 0 0 0 0 0 0 0 0 0 0 0 0 0 0 0 0 0 0 0 0 0 0 0 1 0 0
0 0 0 -0 -0 -0 0 0 0 0 0 0 0 0 0 0 0 0 0 0 0 0 0 0 0 0 0 0 0 0 0 0 0 0 0 0 0 0 0 0 1 1 1
0 0 0 -0 -0 -0 0 0 0 0 0 0 0 0 0 0 0 0 0 0 0 0 0 0 0 0 0 0 0 0 0 0 0 0 0 0 0 0 0 0 0 0 1
0 0 0 0 -0 -0 -0 0 0 0 0 0 0 0 0 0 0 0 0 0 0 0 0 0 0 0 0 0 0 0 0 0 0 0 -0 -0 0 0 0 0 0 0 0
0 0 0 0 0 -0 0 0 0 0 0 0 0 0 0 0 0 0 0 0 0 0 0 0 0 0 0 0 -0 0 0 0 0 0 0 -0 0 0 0 0 0 0 0
0 0 0 0 0 0 0 0 0 0 0 0 0 0 0 0 0 0 0 0 0 0 0 0 0 0 0 -0 -0 0 0 0 0 0 0 0 0 0 0 0 0 0 0
0 0 0 0 0 0 0 0 0 0 0 0 0 0 0 0 0 0 0 0 0 0 0 0 0 0 0 0 0 0 0 0 0 0 0 0 0 0 0 0 0 0 0
0 0 0 0 0 0 0 0 0 0 0 0 0 0 0 0 0 0 0 0 0 0 0 0 0 0 0 0 0 0 0 0 -0 0 0 0 0 0 0 0 0 0 0
0 0 0 0 0 0 0 0 0 0 0 0 0 0 0 0 0 0 0 0 0 0 0 0 0 0 0 0 0 0 0 0 -0 0 0 0 0 0 0 0 0 0 0
0 0 0 0 0 0 0 0 0 0 0 0 0 0 0 0 0 0 0 0 0 0 0 0 0 0 0 0 0 0 0 0 0 0 0 0 0 0 0 0 0 0 -0
0 0 0 0 0 0 0 0 0 0 0 0 0 0 0 0 0 0 0 0 0 0 0 0 0 0 0 0 0 0 0 0 0 0 0 0 0 0 0 0 0 0 -0
0 0 0 0 0 0 0 0 0 0 0 0 0 0 0 0 0 0 0 0 0 0 0 0 0 0 0 0 0 0 0 0 0 0 0 0 0 0 0 0 0 0 0
0 0 0 0 0 0 0 0 0 0 0 0 0 0 0 0 0 0 0 0 0 0 0 0 0 0 0 0 0 0 0 0 0 0 0 0 0 0 0 0 0 0 0
0 0 0 0 0 0 0 0 0 0 0 0 0 0 0 0 0 0 0 0 0 0 0 0 0 0 0 0 0 0 0 0 0 0 0 0 0 0 0 -0 -0 -0 -0
0 0 0 0 0 0 0 0 0 0 0 0 0 0 0 0 0 0 0 0 0 0 0 0 0 0 0 0 0 0 0 0 -0 -0 0 0 -0 -0 -0 -0 -0 -0 0
0 0 0 0 0 0 0 0 0 0 0 0 0 0 0 0 0 0 0 0 0 0 0 0 0 0 0 0 0 0 0 0 -0 -0 0 0 -0 0 0 0 -0 0 0
0 0 0 0 0 0 0 0 0 0 0 0 0 0 0 0 0 0 0 0 0 0 0 0 0 0 0 0 0 0 0 0 -0 -0 0 0 0 0 -0 -0 -0 0 0
Wind_Speed_500mb
30 31 29 19 13 11 16 14 11 10 10 13 15 12 9 9 8 9 11 12 15 19 21 23 25 29 30 31 31 33 35 29 24 26 25 25 25 23 18 15 12 11 18
28 27 22 14 8 12 14 17 11 7 10 12 10 10 9 9 8 9 10 12 14 17 19 21 23 25 26 26 29 32 37 39 40 33 32 30 28 26 24 21 18 17 21
27 28 26 19 14 11 14 12 8 6 10 9 9 8 9 9 10 11 11 12 14 16 18 21 24 26 26 26 29 30 35 39 40 40 36 34 33 31 26 25 23 22 25
28 31 27 18 15 15 14 11 5 5 8 8 8 9 10 11 12 13 14 14 16 18 20 21 24 26 27 26 28 29 32 34 37 42 41 37 36 35 31 27 28 27 27
33 31 30 25 19 18 15 9 3 5 5 6 7 9 10 12 13 14 15 17 18 18 19 22 24 23 26 27 27 29 30 35 40 41 40 45 40 38 36 32 33 33 32
33 31 28 28 22 20 15 9 2 3 3 5 8 10 13 15 15 16 17 18 18 18 20 25 25 26 26 27 27 29 31 33 32 28 31 38 47 40 37 34 37 39 35
32 31 28 28 20 20 15 8 3 2 3 7 11 13 15 17 18 18 19 20 22 22 19 21 20 23 25 24 22 21 25 27 23 26 28 33 40 50 43 42 36 41 39
24 27 25 24 19 20 15 9 5 1 3 8 11 14 16 19 18 19 20 22 19 22 22 22 22 25 25 20 21 21 22 22 23 22 24 30 39 47 52 38 36 40 42
25 20 21 22 23 21 15 9 4 0 4 8 11 14 17 18 18 20 21 22 23 21 20 23 24 24 27 28 27 23 20 20 21 20 21 23 29 41 53 43 39 38 42
26 21 20 22 24 22 16 10 5 1 2 7 10 13 16 17 18 21 21 23 23 21 25 27 26 29 30 29 27 25 21 19 18 19 20 20 19 27 39 41 34 36 40
33 26 22 20 26 23 18 12 7 3 1 6 9 12 15 15 17 18 21 23 21 23 26 28 31 32 31 27 26 24 21 18 15 16 13 15 11 12 26 30 37 34 36
39 30 24 22 25 24 19 14 9 5 1 5 8 11 13 14 16 18 22 20 21 22 25 28 33 35 30 29 26 22 19 16 15 15 10 7 8 10 16 24 28 32 29
33 31 25 25 26 23 19 14 11 7 3 5 8 10 12 13 16 18 20 17 19 20 25 30 36 34 30 29 25 21 17 16 15 15 7 3 8 15 21 31 26 29 23
40 32 27 27 27 25 22 17 13 9 5 3 8 10 11 13 14 17 17 16 16 20 28 33 34 32 34 38 41 39 37 20 16 15 10 2 4 15 19 24 32 20 14
43 36 32 30 28 28 24 19 15 11 7 4 6 9 10 10 13 16 14 15 15 20 27 33 34 34 32 39 47 50 44 37 33 27 13 8 7 8 13 17 27 21 15
47 42 37 34 31 29 26 20 16 13 9 6 5 7 8 9 12 15 12 13 13 17 25 31 34 32 34 45 52 48 47 41 43 36 18 7 12 13 16 20 26 18 15
50 45 43 37 35 33 28 22 18 16 12 8 6 5 6 8 10 13 11 11 12 15 21 25 28 31 37 48 48 49 45 56 53 45 26 12 14 22 36 41 40 17 21
54 52 47 43 41 37 33 26 22 19 15 10 8 6 3 6 8 11 10 10 11 12 16 20 25 31 40 47 45 46 46 61 51 45 33 21 22 39 33 38 41 39 47
58 56 52 48 46 42 38 31 26 23 19 16 11 8 3 3 5 9 8 10 10 12 14 19 22 28 38 44 40 45 50 59 48 40 41 34 41 37 38 40 42 39 44
63 60 56 51 49 46 42 37 33 31 27 21 14 10 6 2 2 6 7 10 10 12 13 15 19 23 32 41 46 43 45 56 48 46 41 43 40 39 41 50 38 33 35
66 66 64 59 57 57 55 50 44 37 29 25 19 13 10 5 2 3 6 8 9 11 13 15 16 18 25 34 39 46 43 47 53 49 39 28 35 43 44 44 29 35 40
67 69 66 65 62 62 58 50 43 35 32 27 23 18 14 9 6 1 5 6 9 10 13 15 14 16 14 16 19 23 20 40 48 50 43 43 33 34 37 42 29 40 66
68 73 71 67 64 65 60 56 50 43 38 36 31 22 18 13 10 5 3 6 8 11 11 14 17 12 11 9 9 5 11 17 36 36 45 39 38 39 38 38 40 68 67
65 69 69 69 67 66 62 61 54 47 41 32 26 22 21 16 13 8 4 7 9 11 12 13 16 15 12 11 18 21 15 27 23 29 40 46 48 46 40 49 74 70 67
62 68 71 69 68 67 63 61 55 48 38 29 30 28 24 20 16 12 7 6 10 11 13 14 16 18 17 17 18 23 25 22 33 52 53 54 75 65 46 77 73 67 62
63 64 70 71 72 68 66 63 58 50 43 38 34 32 27 23 20 15 10 7 12 13 14 14 16 18 19 15 18 29 21 26 42 48 74 74 68 68 64 64 59 54 49
Wind_Direction_500mb
171 177 183 190 215 243 248 247 260 277 297 308 316 321 325 316 308 300 289 285 282 280 280 279 277 275 272 270 267 262 260 258 256 247 239 237 237 239 237 233 221 190 179
163 167 182 188 243 226 265 244 239 271 306 321 332 336 341 332 325 320 311 305 295 289 288 287 284 279 277 272 265 259 257 254 252 248 238 234 233 234 231 227 210 197 189
157 162 183 179 211 219 252 217 228 285 318 336 344 349 353 347 347 342 328 316 304 298 295 294 290 288 285 278 271 266 260 256 251 245 237 233 230 229 226 224 210 203 193
166 173 179 179 196 215 217 204 228 309 329 347 351 2 1 354 350 339 329 319 311 306 303 300 295 291 288 281 273 267 265 262 253 244 230 228 224 224 222 220 212 204 195
174 173 175 177 202 206 184 194 228 318 339 347 0 10 0 354 349 339 332 326 322 318 312 310 311 320 311 306 296 289 284 276 268 262 244 231 225 218 218 212 212 206 198
175 178 184 188 196 176 178 186 225 302 338 1 12 14 3 356 349 345 339 336 331 329 334 345 341 329 325 314 301 292 287 281 280 270 255 246 235 225 217 212 209 208 201
176 185 197 218 177 171 177 183 216 265 9 15 18 13 2 352 351 346 345 344 357 4 6 345 342 340 332 327 319 314 308 299 292 271 258 244 227 223 224 219 210 209 203
189 193 205 223 197 175 179 186 201 227 18 27 18 7 354 349 350 348 349 349 358 3 356 359 354 356 353 338 321 316 317 310 293 287 266 236 223 218 214 226 217 211 205
193 205 216 233 194 182 185 193 196 179 26 23 13 1 349 348 348 351 352 350 350 359 2 5 3 356 352 347 346 335 314 306 300 295 287 268 240 218 211 204 221 217 209
199 213 234 239 191 186 190 197 200 223 33 17 4 353 348 348 354 360 355 356 4 13 18 20 14 6 356 351 344 344 329 320 310 306 292 281 260 232 212 202 207 217 216
203 216 229 233 193 190 196 202 209 227 38 5 353 349 349 354 3 2 359 5 14 18 17 11 10 4 358 351 353 351 345 349 340 329 306 292 262 221 193 207 206 209 214
207 213 221 216 201 196 201 206 212 219 303 345 344 347 351 358 6 7 5 12 20 21 20 20 13 7 4 7 3 0 1 2 0 359 336 314 233 151 165 191 197 204 201
211 215 220 211 204 204 207 212 212 212 221 326 332 345 353 3 10 10 12 19 26 26 28 24 22 23 25 19 11 6 4 359 2 6 351 315 207 170 185 200 195 202 201
214 218 218 210 208 206 204 207 210 213 214 297 324 348 357 5 12 11 17 24 39 33 33 27 30 31 39 45 42 43 36 25 21 12 23 3 190 185 193 201 192 186 203
219 218 218 214 210 209 207 206 212 212 217 258 319 341 354 4 14 14 22 33 46 43 40 37 38 41 46 51 49 44 44 42 31 35 65 101 119 153 186 195 174 154 162
221 222 221 217 213 212 212 208 213 212 224 247 295 330 351 359 18 19 26 36 48 50 44 44 41 39 52 58 56 52 51 49 38 42 55 101 110 126 126 136 155 152 182
225 223 224 221 216 215 213 212 215 215 220 236 278 310 345 355 18 19 26 35 52 57 49 49 50 51 62 65 61 61 56 48 41 42 52 85 120 125 131 135 146 155 118
228 226 224 222 220 216 213 214 217 218 221 228 256 280 334 350 22 20 29 42 59 73 60 62 56 49 63 75 68 66 52 60 44 47 53 84 118 126 116 130 130 114 110
232 228 225 224 221 216 212 211 214 219 223 225 235 259 267 329 26 26 32 40 59 95 76 71 66 58 66 75 73 70 65 67 50 46 59 92 111 105 104 125 128 128 117
231 228 227 225 220 214 213 212 214 217 220 220 223 237 237 229 37 29 42 51 77 103 81 79 77 67 73 76 75 76 68 66 56 60 65 97 115 108 122 135 131 122 126
227 224 223 221 217 211 209 210 213 217 217 218 219 225 228 209 206 32 51 64 100 112 94 88 81 85 91 79 82 78 76 73 72 60 73 84 94 99 127 129 123 125 136
226 221 219 219 218 213 214 215 216 214 215 216 219 219 221 204 205 140 62 86 110 127 105 100 98 102 95 93 77 76 66 68 81 71 73 98 103 112 125 141 132 129 134
222 220 218 217 215 215 213 211 212 210 213 216 215 215 215 206 204 173 116 120 122 143 126 107 110 92 87 64 40 55 100 99 89 81 68 112 115 122 130 134 118 128 132
223 219 219 216 214 214 214 214 214 215 214 218 217 217 213 206 204 183 161 145 142 152 146 120 108 98 85 76 71 73 111 135 120 100 80 87 126 120 122 125 136 131 128
222 217 215 214 213 214 213 215 216 214 217 220 215 216 212 209 206 189 183 165 153 161 156 140 116 103 96 92 76 92 118 125 126 130 99 94 104 112 118 112 126 122 120
213 211 211 210 211 212 213 215 215 214 212 213 214 216 211 211 207 195 189 186 164 174 168 158 137 119 116 106 97 85 122 137 138 141 114 112 108 100 104 104 102 101 104
Wind_Speed_850mb
30 31 29 19 13 11 16 14 11 10 10 13 15 12 9 9 8 9 11 12 15 19 21 23 25 29 30 31 31 33 35 29 24 26 25 25 25 23 18 15 12 11 18
28 27 22 14 8 12 14 17 11 7 10 12 10 10 9 9 8 9 10 12 14 17 19 21 23 25 26 26 29 32 37 39 40 33 32 30 28 26 24 21 18 17 21
27 28 26 19 14 11 14 12 8 6 10 9 9 8 9 9 10 11 11 12 14 16 18 21 24 26 26 26 29 30 35 39 40 40 36 34 33 31 26 25 23 22 25
28 31 27 18 15 15 14 11 5 5 8 8 8 9 10 11 12 13 14 14 16 18 20 21 24 26 27 26 28 29 32 34 37 42 41 37 36 35 31 27 28 27 27
33 31 30 25 19 18 15 9 3 5 5 6 7 9 10 12 13 14 15 17 18 18 19 22 24 23 26 27 27 29 30 35 40 41 40 45 40 38 36 32 33 33 32
33 31 28 28 22 20 15 9 2 3 3 5 8 10 13 15 15 16 17 18 18 18 20 25 25 26 26 27 27 29 31 33 32 28 31 38 47 40 37 34 37 39 35
32 31 28 28 20 20 15 8 3 2 3 7 11 13 15 17 18 18 19 20 22 22 19 21 20 23 25 24 22 21 25 27 23 26 28 33 40 50 43 42 36 41 39
24 27 25 24 19 20 15 9 5 1 3 8 11 14 16 19 18 19 20 22 19 22 22 22 22 25 25 20 21 21 22 22 23 22 24 30 39 47 52 38 36 40 42
25 20 21 22 23 21 15 9 4 0 4 8 11 14 17 18 18 20 21 22 23 21 20 23 24 24 27 28 27 23 20 20 21 20 21 23 29 41 53 43 39 38 42
26 21 20 22 24 22 16 10 5 1 2 7 10 13 16 17 18 21 21 23 23 21 25 27 26 29 30 29 27 25 21 19 18 19 20 20 19 27 39 41 34 36 40
33 26 22 20 26 23 18 12 7 3 1 6 9 12 15 15 17 18 21 23 21 23 26 28 31 32 31 27 26 24 21 18 15 16 13 15 11 12 26 30 37 34 36
39 30 24 22 25 24 19 14 9 5 1 5 8 11 13 14 16 18 22 20 21 22 25 28 33 35 30 29 26 22 19 16 15 15 10 7 8 10 16 24 28 32 29
33 31 25 25 26 23 19 14 11 7 3 5 8 10 12 13 16 18 20 17 19 20 25 30 36 34 30 29 25 21 17 16 15 15 7 3 8 15 21 31 26 29 23
40 32 27 27 27 25 22 17 13 9 5 3 8 10 11 13 14 17 17 16 16 20 28 33 34 32 34 38 41 39 37 20 16 15 10 2 4 15 19 24 32 20 14
43 36 32 30 28 28 24 19 15 11 7 4 6 9 10 10 13 16 14 15 15 20 27 33 34 34 32 39 47 50 44 37 33 27 13 8 7 8 13 17 27 21 15
47 42 37 34 31 29 26 20 16 13 9 6 5 7 8 9 12 15 12 13 13 17 25 31 34 32 34 45 52 48 47 41 43 36 18 7 12 13 16 20 26 18 15
50 45 43 37 35 33 28 22 18 16 12 8 6 5 6 8 10 13 11 11 12 15 21 25 28 31 37 48 48 49 45 56 53 45 26 12 14 22 36 41 40 17 21
54 52 47 43 41 37 33 26 22 19 15 10 8 6 3 6 8 11 10 10 11 12 16 20 25 31 40 47 45 46 46 61 51 45 33 21 22 39 33 38 41 39 47
58 56 52 48 46 42 38 31 26 23 19 16 11 8 3 3 5 9 8 10 10 12 14 19 22 28 38 44 40 45 50 59 48 40 41 34 41 37 38 40 42 39 44
63 60 56 51 49 46 42 37 33 31 27 21 14 10 6 2 2 6 7 10 10 12 13 15 19 23 32 41 46 43 45 56 48 46 41 43 40 39 41 50 38 33 35
66 66 64 59 57 57 55 50 44 37 29 25 19 13 10 5 2 3 6 8 9 11 13 15 16 18 25 34 39 46 43 47 53 49 39 28 35 43 44 44 29 35 40
67 69 66 65 62 62 58 50 43 35 32 27 23 18 14 9 6 1 5 6 9 10 13 15 14 16 14 16 19 23 20 40 48 50 43 43 33 34 37 42 29 40 66
68 73 71 67 64 65 60 56 50 43 38 36 31 22 18 13 10 5 3 6 8 11 11 14 17 12 11 9 9 5 11 17 36 36 45 39 38 39 38 38 40 68 67
65 69 69 69 67 66 62 61 54 47 41 32 26 22 21 16 13 8 4 7 9 11 12 13 16 15 12 11 18 21 15 27 23 29 40 46 48 46 40 49 74 70 67
62 68 71 69 68 67 63 61 55 48 38 29 30 28 24 20 16 12 7 6 10 11 13 14 16 18 17 17 18 23 25 22 33 52 53 54 75 65 46 77 73 67 62
63 64 70 71 72 68 66 63 58 50 43 38 34 32 27 23 20 15 10 7 12 13 14 14 16 18 19 15 18 29 21 26 42 48 74 74 68 68 64 64 59 54 49
Wind_Direction_850mb
171 177 183 190 215 243 248 247 260 277 297 308 316 321 325 316 308 300 289 285 282 280 280 279 277 275 272 270 267 262 260 258 256 247 239 237 237 239 237 233 221 190 179
163 167 182 188 243 226 265 244 239 271 306 321 332 336 341 332 325 320 311 305 295 289 288 287 284 279 277 272 265 259 257 254 252 248 238 234 233 234 231 227 210 197 189
157 162 183 179 211 219 252 217 228 285 318 336 344 349 353 347 347 342 328 316 304 298 295 294 290 288 285 278 271 266 260 256 251 245 237 233 230 229 226 224 210 203 193
166 173 179 179 196 215 217 204 228 309 329 347 351 2 1 354 350 339 329 319 311 306 303 300 295 291 288 281 273 267 265 262 253 244 230 228 224 224 222 220 212 204 195
174 173 175 177 202 206 184 194 228 318 339 347 0 10 0 354 349 339 332 326 322 318 312 310 311 320 311 306 296 289 284 276 268 262 244 231 225 218 218 212 212 206 198
175 178 184 188 196 176 178 186 225 302 338 1 12 14 3 356 349 345 339 336 331 329 334 345 341 329 325 314 301 292 287 281 280 270 255 246 235 225 217 212 209 208 201
176 185 197 218 177 171 177 183 216 265 9 15 18 13 2 352 351 346 345 344 357 4 6 345 342 340 332 327 319 314 308 299 292 271 258 244 227 223 224 219 210 209 203
189 193 205 223 197 175 179 186 201 227 18 27 18 7 354 349 350 348 349 349 358 3 356 359 354 356 353 338 321 316 317 310 293 287 266 236 223 218 214 226 217 211 205
193 205 216 233 194 182 185 193 196 179 26 23 13 1 349 348 348 351 352 350 350 359 2 5 3 356 352 347 346 335 314 306 300 295 287 268 240 218 211 204 221 217 209
199 213 234 239 191 186 190 197 200 223 33 17 4 353 348 348 354 360 355 356 4 13 18 20 14 6 356 351 344 344 329 320 310 306 292 281 260 232 212 202 207 217 216
203 216 229 233 193 190 196 202 209 227 38 5 353 349 349 354 3 2 359 5 14 18 17 11 10 4 358 351 353 351 345 349 340 329 306 292 262 221 193 207 206 209 214
207 213 221 216 201 196 201 206 212 219 303 345 344 347 351 358 6 7 5 12 20 21 20 20 13 7 4 7 3 0 1 2 0 359 336 314 233 151 165 191 197 204 201
211 215 220 211 204 204 207 212 212 212 221 326 332 345 353 3 10 10 12 19 26 26 28 24 22 23 25 19 11 6 4 359 2 6 351 315 207 170 185 200 195 202 201
214 218 218 210 208 206 204 207 210 213 214 297 324 348 357 5 12 11 17 24 39 33 33 27 30 31 39 45 42 43 36 25 21 12 23 3 190 185 193 201 192 186 203
219 218 218 214 210 209 207 206 212 212 217 258 319 341 354 4 14 14 22 33 46 43 40 37 38 41 46 51 49 44 44 42 31 35 65 101 119 153 186 195 174 154 162
221 222 221 217 213 212 212 208 213 212 224 247 295 330 351 359 18 19 26 36 48 50 44 44 41 39 52 58 56 52 51 49 38 42 55 101 110 126 126 136 155 152 182
225 223 224 221 216 215 213 212 215 215 220 236 278 310 345 355 18 19 26 35 52 57 49 49 50 51 62 65 61 61 56 48 41 42 52 85 120 125 131 135 146 155 118
228 226 224 222 220 216 213 214 217 218 221 228 256 280 334 350 22 20 29 42 59 73 60 62 56 49 63 75 68 66 52 60 44 47 53 84 118 126 116 130 130 114 110
232 228 225 224 221 216 212 211 214 219 223 225 235 259 267 329 26 26 32 40 59 95 76 71 66 58 66 75 73 70 65 67 50 46 59 92 111 105 104 125 128 128 117
231 228 227 225 220 214 213 212 214 217 220 220 223 237 237 229 37 29 42 51 77 103 81 79 77 67 73 76 75 76 68 66 56 60 65 97 115 108 122 135 131 122 126
227 224 223 221 217 211 209 210 213 217 217 218 219 225 228 209 206 32 51 64 100 112 94 88 81 85 91 79 82 78 76 73 72 60 73 84 94 99 127 129 123 125 136
226 221 219 219 218 213 214 215 216 214 215 216 219 219 221 204 205 140 62 86 110 127 105 100 98 102 95 93 77 76 66 68 81 71 73 98 103 112 125 141 132 129 134
222 220 218 217 215 215 213 211 212 210 213 216 215 215 215 206 204 173 116 120 122 143 126 107 110 92 87 64 40 55 100 99 89 81 68 112 115 122 130 134 118 128 132
223 219 219 216 214 214 214 214 214 215 214 218 217 217 213 206 204 183 161 145 142 152 146 120 108 98 85 76 71 73 111 135 120 100 80 87 126 120 122 125 136 131 128
222 217 215 214 213 214 213 215 216 214 217 220 215 216 212 209 206 189 183 165 153 161 156 140 116 103 96 92 76 92 118 125 126 130 99 94 104 112 118 112 126 122 120
213 211 211 210 211 212 213 215 215 214 212 213 214 216 211 211 207 195 189 186 164 174 168 158 137 119 116 106 97 85 122 137 138 141 114 112 108 100 104 104 102 101 104